Location: Unspecified
(40.7945°N, 0.0000°E)
Time: 10:53:46
(UTC+00:00)

Courier 1B - Pass Details

Date: 27 January 2021
Orbit: 962 x 1209 km, 28.3° (Epoch: 26 February)

Event Time Altitude Azimuth Distance (km) Brightness Sun altitude
Rises 23:04:52 0° 242° (WSW) 3,809 - -63.1°
Reaches altitude 10° 23:08:03 10° 231° (SW) 2,815 - -63.5°
Maximum altitude 23:13:36 27° 176° (S) 1,807 - -64.1°
Drops below altitude 10° 23:18:56 10° 121° (ESE) 2,710 - -64.6°
Sets 23:21:57 0° 109° (ESE) 3,642 - -64.9°
